Location: Errabaliem
(16.8108°N, 80.4255°E)
Time: 15:41:55
(UTC+00:00)

CZ-2C R/B - Pass Details

Date: 05 August 2024
Orbit: 665 x 777 km, 98.4° (Epoch: 11 September)

Event Time Altitude Azimuth Distance (km) Brightness Sun altitude
Rises 22:55:24 0° 349° (N) 3,252 5.9 -19.7°
Reaches altitude 10° 22:58:15 10° 333° (NNW) 2,324 5.0 -19.1°
Enters shadow 23:01:35 20° 293° (WNW) 1,726 3.9 -18.3°
